Station 45219 - Two Harbors Nearshore Buoy Image indicating link to RSS feed of recent meteorological observations for station 45219


Conditions at 45219 as of
(1:20 am CDT)
0620 GMT on 09/01/2026:
     

Click on the graph icon in the table below to see a time series plot of the last five days of that observation.

5-day plot - Wind Speed Wind Speed (WSPD): 1.9 kts
5-day plot - Atmospheric Pressure Atmospheric Pressure (PRES):29.88 in
5-day plot - Air Temperature Air Temperature (ATMP): 60.3 °F
5-day plot - Wind Speed at 10 Meters Wind Speed at 10 meters (WSPD10M): 1.9 kts
5-day plot - Wind Speed at 20 Meters Wind Speed at 20 meters (WSPD20M): 1.9 kts
5-day plot -  Wind Speed, Wind Gust and Atmospheric Pressure Combined plot of Wind Speed, Gust, and Air Pressure
Previous observations
TIME
(CDT)
5-day plot - Wind Direction
WDIR
 
5-day plot - Wind Speed
WSPD
kts
5-day plot - Wind Gust
GST
kts
5-day plot - Wave Height
WVHT
ft
5-day plot - Dominant Wave Period
DPD
sec
5-day plot - Average Wave Period
APD
sec
5-day plot - Mean Wave Direction
MWD
 
5-day plot - Atmospheric Pressure
PRES
in
5-day plot - Pressure Tendency
PTDY
in
5-day plot - Air Temperature
ATMP
°F
5-day plot - Water Temperature
WTMP
°F
5-day plot - Dew Point
DEWP
°F
5-day plot - Salinity
SAL
psu
5-day plot - Visibility
VIS
nmi
5-day plot - Tide (above MLLW)
TIDE
ft
2026-09-01 01:10 am- 1.9-----29.88- 60.3-----
2026-09-01 01:00 am- 1.9-----29.87+0.01 60.1-----
2026-09-01 12:50 am- 1.9-----29.87- 59.7-----
2026-09-01 12:40 am- 1.9-----29.87- 59.9-----
2026-09-01 12:30 am- 1.9-----29.88- 59.7-----
2026-09-01 12:20 am- 1.9-----29.88- 59.9-----
2026-09-01 12:10 am- 1.9-----29.88- 59.7-----
2026-09-01 12:00 am- 1.9-----29.88+0.02 59.7-----
2026-08-31 11:50 pm- 0.0-----29.87- 59.7-----
2026-08-31 11:40 pm- 1.9-----29.87- 60.1-----
2026-08-31 11:30 pm- 0.0-----29.87- 60.1-----
2026-08-31 11:20 pm- 1.9-----29.87- 59.9-----
2026-08-31 11:10 pm- 0.0-----29.86- 59.9-----
2026-08-31 11:00 pm- 1.9-----29.86+0.03 59.7-----
2026-08-31 10:50 pm- 1.9-----29.86- 59.9-----
2026-08-31 10:40 pm- 1.9-----29.86- 59.9-----
2026-08-31 10:30 pm- 1.9-----29.86- 59.9-----
2026-08-31 10:20 pm- 1.9-----29.86- 60.3-----
2026-08-31 10:10 pm- 1.9-----29.86- 60.3-----
2026-08-31 10:00 pm- 1.9-----29.86+0.03 60.4-----
2026-08-31 09:50 pm- 1.9-----29.86- 60.6-----
2026-08-31 09:40 pm- 3.9-----29.86- 60.8-----
2026-08-31 09:30 pm- 3.9-----29.86- 61.0-----
2026-08-31 09:20 pm- 1.9-----29.86- 61.0-----
2026-08-31 09:10 pm- 3.9-----29.86- 61.0-----
2026-08-31 09:00 pm- 3.9-----29.85+0.03 61.0-----
2026-08-31 08:50 pm- 3.9-----29.85- 61.0-----
2026-08-31 08:40 pm- 5.8-----29.85- 61.0-----
2026-08-31 08:30 pm- 5.8-----29.84- 61.0-----
2026-08-31 08:20 pm- 5.8-----29.84- 61.2-----
2026-08-31 08:10 pm- 3.9-----29.83- 61.2-----
2026-08-31 08:00 pm- 3.9-----29.83+0.01 61.7-----
2026-08-31 07:50 pm- 3.9-----29.83- 62.2-----
2026-08-31 07:40 pm- 1.9-----29.83- 62.8-----
2026-08-31 07:30 pm- 1.9-----29.83- 63.5-----
2026-08-31 07:20 pm- 1.9-----29.83- 63.7-----
2026-08-31 07:10 pm- 1.9-----29.83- 63.5-----
2026-08-31 07:00 pm- 1.9-----29.83+0.00 63.9-----
2026-08-31 06:50 pm- 1.9-----29.83- 63.9-----
2026-08-31 06:40 pm- 3.9-----29.83- 63.7-----
2026-08-31 05:20 pm- 3.9-----29.82- 64.0-----
2026-08-31 05:10 pm- 3.9-----29.82- 64.2-----
2026-08-31 05:00 pm- 3.9-----29.82-0.02 64.4-----
2026-08-31 04:50 pm- 1.9-----29.82- 64.2-----
2026-08-31 04:40 pm- 3.9-----29.83- 64.0-----
2026-08-31 04:30 pm- 3.9-----29.82- 63.9-----
2026-08-31 04:20 pm- 1.9-----29.83- 63.7-----
2026-08-31 04:10 pm- 1.9-----29.83- 63.5-----
2026-08-31 04:00 pm- 3.9-----29.83+0.00 63.3-----
2026-08-31 03:50 pm- 1.9-----29.83- 63.1-----
2026-08-31 03:40 pm- 3.9-----29.83- 63.0-----
2026-08-31 03:30 pm- 1.9-----29.83- 63.0-----
2026-08-31 03:20 pm- 1.9-----29.83- 63.0-----
2026-08-31 03:10 pm- 1.9-----29.83- 63.1-----
2026-08-31 03:00 pm- 1.9-----29.84+0.01 63.0-----
2026-08-31 02:50 pm- 1.9-----29.84- 62.4-----
2026-08-31 02:40 pm- 1.9-----29.84- 62.1-----
2026-08-31 02:30 pm- 1.9-----29.84- 62.1-----
2026-08-31 02:20 pm- 1.9-----29.83- 61.5-----
2026-08-31 02:10 pm- 1.9-----29.84- 61.3-----
2026-08-31 02:00 pm- 1.9-----29.84+0.03 61.0-----
2026-08-31 01:50 pm- 1.9-----29.84- 61.2-----
2026-08-31 01:40 pm- 1.9-----29.83- 61.3-----
2026-08-31 01:30 pm- 1.9-----29.83- 61.5-----
2026-08-31 01:20 pm- 1.9-----29.83- 61.3-----
2026-08-31 01:10 pm- 3.9-----29.83- 61.3-----
2026-08-31 01:00 pm- 5.8-----29.83+0.03 61.3-----
2026-08-31 12:50 pm- 5.8-----29.83- 61.3-----
2026-08-31 12:40 pm- 5.8-----29.83- 61.5-----
2026-08-31 12:30 pm- 7.8-----29.83- 61.7-----
2026-08-31 12:20 pm- 7.8-----29.83- 61.9-----
2026-08-31 12:10 pm- 9.7-----29.82- 61.9-----
2026-08-31 12:00 pm- 9.7-----29.82+0.05 62.1-----
2026-08-31 11:50 am- 11.7-----29.82- 62.1-----
2026-08-31 11:40 am- 9.7-----29.82- 62.1-----
2026-08-31 11:30 am- 11.7-----29.82- 62.1-----
2026-08-31 11:20 am- 11.7-----29.82- 62.1-----
2026-08-31 11:10 am- 11.7-----29.82- 62.1-----
2026-08-31 11:00 am- 11.7-----29.81+0.03 62.1-----
2026-08-31 10:50 am- 11.7-----29.81- 62.1-----
2026-08-31 10:40 am- 11.7-----29.81- 61.9-----
2026-08-31 10:30 am- 11.7-----29.81- 61.7-----
2026-08-31 10:20 am- 11.7-----29.80- 61.7-----
2026-08-31 10:10 am- 9.7-----29.80- 61.7-----
2026-08-31 10:00 am- 9.7-----29.80+0.02 61.9-----
2026-08-31 09:50 am- 9.7-----29.80- 61.9-----
2026-08-31 09:40 am- 9.7-----29.79- 62.1-----
2026-08-31 09:30 am- 9.7-----29.79- 62.1-----
2026-08-31 09:20 am- 9.7-----29.78- 62.4-----
2026-08-31 09:10 am- 7.8-----29.78- 62.6-----
2026-08-31 09:00 am- 5.8-----29.77+0.00 63.5-----
2026-08-31 08:50 am- 3.9-----29.77- 65.1-----
2026-08-31 08:40 am- 1.9-----29.78- 65.3-----
2026-08-31 08:30 am- 1.9-----29.78- 65.1-----
2026-08-31 08:20 am- 1.9-----29.78- 64.8-----
2026-08-31 08:10 am- 1.9-----29.78- 64.6-----
2026-08-31 08:00 am- 1.9-----29.78+0.00 64.6-----
2026-08-31 07:50 am- 3.9-----29.78- 64.8-----
2026-08-31 07:40 am- 5.8-----29.78- 64.0-----
2026-08-31 07:30 am- 5.8-----29.78- 64.2-----
2026-08-31 07:20 am- 5.8-----29.78- 63.7-----
2026-08-31 07:10 am- 7.8-----29.78- 64.0-----
2026-08-31 07:00 am- 9.7-----29.78-0.02 63.9-----
2026-08-31 06:50 am- 9.7-----29.78- 63.5-----
2026-08-31 06:40 am- 11.7-----29.78- 63.5-----
2026-08-31 06:30 am- 13.6-----29.77- 63.7-----
2026-08-31 06:20 am- 11.7-----29.78- 63.7-----
2026-08-31 06:10 am- 15.5-----29.78- 63.0-----
2026-08-31 06:00 am- 13.6-----29.77-0.01 62.6-----
2026-08-31 05:50 am- 13.6-----29.77- 62.6-----
2026-08-31 05:40 am- 15.5-----29.78- 62.4-----
2026-08-31 05:30 am- 17.5-----29.78- 62.1-----
2026-08-31 05:20 am- 17.5-----29.77- 62.1-----
2026-08-31 05:10 am- 15.5-----29.78- 62.1-----
2026-08-31 05:00 am- 17.5-----29.78-0.01 62.1-----
2026-08-31 04:50 am- 17.5-----29.78- 62.1-----
2026-08-31 04:40 am- 17.5-----29.78- 62.1-----
2026-08-31 04:30 am- 19.4-----29.78- 62.2-----
2026-08-31 04:20 am- 19.4-----29.78- 62.4-----
2026-08-31 04:10 am- 17.5-----29.79- 62.4-----
2026-08-31 04:00 am- 15.5-----29.79-0.06 62.6-----
2026-08-31 03:50 am- 17.5-----29.79- 62.4-----
2026-08-31 03:40 am- 17.5-----29.78- 62.2-----
2026-08-31 03:30 am- 15.5-----29.78- 62.1-----
2026-08-31 03:20 am- 13.6-----29.79- 62.1-----
2026-08-31 03:10 am- 11.7-----29.78- 61.9-----
2026-08-31 03:00 am- 15.5-----29.78-0.10 62.1-----
2026-08-31 02:50 am- 13.6-----29.79- 62.2-----
2026-08-31 02:40 am- 15.5-----29.80- 62.1-----
2026-08-31 02:30 am- 15.5-----29.80- 61.9-----
2026-08-31 02:20 am- 15.5-----29.80- 61.5-----
2026-08-31 02:10 am- 15.5-----29.80- 61.3-----
2026-08-31 02:00 am- 15.5-----29.80-0.07 61.3-----
2026-08-31 01:50 am- 17.5-----29.80- 61.0-----